Powrót do katalogu

SL-8 DEB *

AktywnyLEO
NORAD 18502·DEBRIS·🇷🇺 Russia

Wystrzelony Jun 1, 1982 z Plesetsk Cosmodrome

Loading…

Następne Przeloty (najbliższe 24 godziny)

TLE

ŚwieżeSource: Space-Track

Epoka: Sep 14, 2026, 12:59 UTC

1 18502U 82051D   26257.54154259  .00000998  00000-0  20733-3 0  9993
2 18502  74.0585 316.2520 0000434 278.9694 148.4774 14.61484805184573

Śledź SL-8 DEB * w czasie rzeczywistym z AllMySat

Download on the App Store